Location: Newark
(11.4947°N, 0.1467°E)
Time: 21:08:00
(UTC+00:00)

Envisat - Pass Details

Date: 15 November 2019
Orbit: 764 x 766 km, 98.1° (Epoch: 12 December)

Event Time Altitude Azimuth Distance (km) Brightness Sun altitude
Rises 17:54:47 0° 154° (SSE) 3,223 6.2 -6.1°
Reaches altitude 10° 17:57:10 10° 148° (SSE) 2,297 5.3 -6.7°
Maximum altitude 18:01:58 44° 77° (ENE) 1,047 3.3 -7.8°
Drops below altitude 10° 18:06:45 10° 5° (N) 2,296 5.3 -8.9°
Sets 18:09:09 0° 359° (N) 3,222 6.1 -9.5°
